FW5633 Weather Reports


Display with metric or nautical units.
time (UTC)temp
F
wind
direction
speed
MPH
gust
MPH
rain 1hr
in
rain 24hr
in
rain mn
in
humidity
%
barometer
mb
20260507223034 51 234 7.0 13.0 0.00 0.00 0.00 57 1011.9
20260507222536 51 320 4.0 17.0 0.00 0.00 0.00 56 1012.0
20260507222033 51 329 8.0 17.0 0.00 0.00 0.00 55 1011.9
20260507221534 51 306 7.0 14.0 0.00 0.00 0.00 54 1011.9
20260507221033 51 307 6.0 13.0 0.00 0.00 0.00 54 1011.8
20260507220532 52 322 6.0 13.0 0.00 0.00 0.00 52 1011.9
20260507220032 52 286 5.0 11.0 0.00 0.00 0.00 51 1011.8
20260507215532 52 285 3.0 13.0 0.00 0.00 0.00 49 1011.7
20260507215031 52 293 6.0 15.0 0.00 0.00 0.00 52 1011.8
20260507214531 52 229 7.0 15.0 0.00 0.00 0.00 51 1011.8
20260507214031 52 256 8.0 15.0 0.00 0.00 0.00 51 1011.8
20260507213531 52 232 5.0 17.0 0.00 0.00 0.00 51 1011.7
20260507213031 53 277 9.0 17.0 0.00 0.00 0.00 49 1011.5
20260507212532 54 355 4.0 16.0 0.00 0.00 0.00 48 1011.6
20260507212030 54 298 6.0 14.0 0.00 0.00 0.00 49 1011.4
20260507211529 54 263 5.0 13.0 0.00 0.00 0.00 49 1011.3
20260507211029 54 285 4.0 11.0 0.00 0.00 0.00 51 1011.2
20260507210528 54 313 2.0 11.0 0.00 0.00 0.00 51 1011.3
20260507210028 54 286 5.0 18.0 0.00 0.00 0.00 51 1011.2
20260507205528 54 316 5.0 18.0 0.00 0.00 0.00 49 1011.2
20260507205027 55 281 4.0 13.0 0.00 0.00 0.00 53 1011.1
20260507204525 54 242 4.0 13.0 0.00 0.00 0.00 51 1011.1
20260507204024 55 261 6.0 13.0 0.00 0.00 0.00 51 1011.0
20260507203523 55 298 4.0 12.0 0.00 0.00 0.00 50 1011.1
20260507203025 54 321 3.0 15.0 0.00 0.00 0.00 53 1011.2
20260507202521 54 331 6.0 14.0 0.00 0.00 0.00 54 1011.3
20260507202021 53 313 4.0 18.0 0.00 0.00 0.00 52 1011.4
20260507201521 54 323 3.0 18.0 0.00 0.00 0.00 52 1011.4
20260507201021 54 313 5.0 14.0 0.00 0.00 0.00 55 1011.4
20260507200520 54 337 3.0 11.0 0.00 0.00 0.00 53 1011.4
20260507200022 54 326 4.0 10.0 0.00 0.00 0.00 56 1011.4
20260507195519 54 273 5.0 14.0 0.00 0.00 0.00 54 1011.5
20260507195021 53 280 7.0 14.0 0.00 0.00 0.00 55 1011.4
20260507194522 53 9 4.0 9.0 0.00 0.00 0.00 55 1011.6
20260507194017 53 355 5.0 14.0 0.00 0.00 0.00 54 1011.6
20260507193517 54 266 9.0 14.0 0.00 0.00 0.00 54 1011.6
20260507193024 54 266 2.0 12.0 0.00 0.00 0.00 57 1011.5
20260507192517 54 28 5.0 12.0 0.00 0.00 0.00 56 1011.4
20260507192016 54 310 4.0 9.0 0.00 0.00 0.00 56 1011.6
20260507191516 54 5 2.0 10.0 0.00 0.00 0.00 56 1011.5
20260507191015 55 322 2.0 10.0 0.00 0.00 0.00 53 1011.6
20260507190515 55 82 3.0 12.0 0.00 0.00 0.00 60 1011.5
20260507190015 54 273 4.0 11.0 0.00 0.00 0.00 57 1011.5
20260507185515 53 348 2.0 11.0 0.00 0.00 0.00 61 1011.7
20260507185015 53 287 5.0 11.0 0.00 0.00 0.00 56 1011.7
20260507184515 53 315 2.0 8.0 0.00 0.00 0.00 57 1011.7
20260507184014 53 319 4.0 12.0 0.00 0.00 0.00 56 1011.7
20260507183514 53 304 5.0 12.0 0.00 0.00 0.00 56 1011.7
20260507183018 54 5 3.0 12.0 0.00 0.00 0.00 58 1011.7
20260507182513 54 321 4.0 12.0 0.00 0.00 0.00 57 1011.6
20260507182013 54 319 4.0 10.0 0.00 0.00 0.00 55 1011.7
20260507181512 55 317 5.0 11.0 0.00 0.00 0.00 53 1011.5
20260507181011 54 268 3.0 10.0 0.00 0.00 0.00 56 1011.5
20260507180510 53 306 5.0 10.0 0.00 0.00 0.00 56 1011.7
20260507180014 53 319 2.0 10.0 0.00 0.00 0.00 57 1011.7
20260507175509 53 277 2.0 10.0 0.00 0.00 0.00 58 1011.7
20260507175009 53 226 4.0 8.0 0.00 0.00 0.00 55 1011.6
20260507174509 53 311 2.0 8.0 0.00 0.00 0.00 55 1011.7
20260507174007 53 260 2.0 8.0 0.00 0.00 0.00 56 1011.8
20260507173507 53 355 2.0 11.0 0.00 0.00 0.00 57 1011.8
20260507173008 53 337 4.0 10.0 0.00 0.00 0.00 58 1011.9
20260507172507 53 208 6.0 13.0 0.00 0.00 0.00 54 1011.9
20260507172007 54 251 8.0 13.0 0.00 0.00 0.00 53 1011.9
20260507171505 54 225 4.0 10.0 0.00 0.00 0.00 58 1011.9
20260507171004 53 219 1.0 12.0 0.00 0.00 0.00 56 1012.0
20260507170504 53 216 8.0 12.0 0.00 0.00 0.00 56 1012.0
20260507170003 53 223 5.0 10.0 0.00 0.00 0.00 58 1012.1
20260507165502 53 236 3.0 7.0 0.00 0.00 0.00 59 1012.2
20260507165003 53 248 3.0 10.0 0.00 0.00 0.00 58 1012.1
20260507164505 53 348 3.0 10.0 0.00 0.00 0.00 57 1012.2
20260507164001 53 323 5.0 10.0 0.00 0.00 0.00 60 1012.2
20260507163601 52 267 4.0 10.0 0.00 0.00 0.00 61 1012.1
20260507163100 52 318 4.0 12.0 0.00 0.00 0.00 57 1012.2
20260507162559 52 323 4.0 12.0 0.00 0.00 0.00 61 1012.3
20260507162059 53 261 1.0 8.0 0.00 0.00 0.00 61 1012.4
20260507161606 53 269 3.0 7.0 0.00 0.00 0.00 62 1012.4
20260507161057 52 306 3.0 10.0 0.00 0.00 0.00 62 1012.4
20260507160557 51 260 5.0 10.0 0.00 0.00 0.00 61 1012.5
20260507160057 51 290 3.0 9.0 0.00 0.00 0.00 60 1012.5
20260507155556 52 210 4.0 11.0 0.00 0.00 0.00 57 1012.5
20260507155056 52 322 4.0 12.0 0.00 0.00 0.00 58 1012.6
20260507154557 52 288 5.0 11.0 0.00 0.00 0.00 56 1012.5
20260507154057 52 300 8.0 12.0 0.00 0.00 0.00 54 1012.5
20260507153555 52 251 6.0 12.0 0.00 0.00 0.00 51 1012.5
20260507153057 52 234 5.0 16.0 0.00 0.00 0.00 54 1012.6
20260507152555 53 217 7.0 16.0 0.00 0.00 0.00 54 1012.6
20260507152056 52 217 4.0 15.0 0.00 0.00 0.00 61 1012.6
20260507151552 52 199 8.0 14.0 0.00 0.00 0.00 60 1012.6
20260507151051 51 250 5.0 12.0 0.00 0.00 0.00 56 1012.8
20260507150551 51 242 8.0 12.0 0.00 0.00 0.00 59 1012.7
20260507150051 51 308 2.0 12.0 0.00 0.00 0.00 61 1012.8
20260507145551 51 241 6.0 12.0 0.00 0.00 0.00 62 1012.8
20260507145052 52 205 8.0 13.0 0.00 0.00 0.00 60 1012.8
20260507144550 52 232 6.0 10.0 0.00 0.00 0.00 60 1012.8
20260507144050 51 299 5.0 10.0 0.00 0.00 0.00 62 1012.8
20260507143547 51 257 4.0 10.0 0.00 0.00 0.00 61 1012.9
20260507143104 52 226 5.0 9.0 0.00 0.00 0.00 64 1013.0
20260507142545 51 247 2.0 5.0 0.00 0.00 0.00 65 1013.0
20260507142045 51 302 3.0 7.0 0.00 0.00 0.00 62 1013.1
20260507141603 51 302 3.0 11.0 0.00 0.00 0.00 63 1013.2
20260507141046 51 256 3.0 11.0 0.00 0.00 0.00 67 1013.3
20260507140544 50 243 4.0 10.0 0.00 0.00 0.00 67 1013.4
20260507140041 50 288 3.0 10.0 0.00 0.01 0.00 68 1013.3
20260507135539 50 279 2.0 8.0 0.00 0.01 0.00 70 1013.4
20260507135038 49 286 1.0 9.0 0.00 0.01 0.00 69 1013.4
20260507134540 49 232 2.0 8.0 0.00 0.01 0.00 70 1013.5
20260507134036 49 255 4.0 7.0 0.00 0.01 0.00 72 1013.5
20260507133535 49 222 1.0 6.0 0.00 0.01 0.00 73 1013.5
20260507133037 49 232 1.0 3.0 0.00 0.01 0.00 74 1013.6
20260507132533 48 111 1.0 4.0 0.00 0.01 0.00 75 1013.6
20260507132031 48 107 1.0 4.0 0.00 0.01 0.00 76 1013.7
20260507131537 47 222 0.0 4.0 0.00 0.01 0.00 76 1013.8
20260507131033 47 217 2.0 4.0 0.00 0.01 0.00 76 1013.7
20260507130528 46 190 0.0 3.0 0.00 0.01 0.00 78 1013.8
20260507130038 46 142 1.0 4.0 0.00 0.01 0.00 78 1013.8
20260507125525 45 225 0.0 4.0 0.00 0.01 0.00 80 1013.8
20260507125027 45 225 2.0 3.0 0.00 0.01 0.00 80 1013.7
20260507124522 44 184 1.0 4.0 0.00 0.01 0.00 81 1013.7
20260507124022 44 360 0.0 5.0 0.00 0.01 0.00 82 1013.7
20260507123521 43 360 2.0 5.0 0.00 0.01 0.00 82 1013.8
20260507123021 43 226 2.0 6.0 0.00 0.01 0.00 82 1013.7
20260507122519 43 216 2.0 6.0 0.00 0.01 0.00 83 1013.7
20260507122018 42 227 2.0 4.0 0.00 0.01 0.00 83 1013.8
20260507121518 42 186 2.0 4.0 0.00 0.01 0.00 84 1013.8
20260507121017 42 360 1.0 4.0 0.00 0.01 0.00 86 1013.8
20260507120515 42 215 1.0 4.0 0.00 0.01 0.00 88 1013.8
20260507120014 41 360 1.0 3.0 0.00 0.02 0.00 89 1013.7
20260507115514 40 360 0.0 0.0 0.00 0.02 0.00 90 1013.8
20260507115013 40 360 0.0 0.0 0.00 0.02 0.00 91 1013.8
20260507114520 39 360 0.0 0.0 0.00 0.02 0.00 91 1013.7
20260507114013 39 360 0.0 0.0 0.00 0.02 0.00 92 1013.7
20260507113512 38 360 0.0 0.0 0.00 0.02 0.00 93 1013.7
20260507113012 38 360 0.0 0.0 0.00 0.02 0.00 93 1013.7
20260507112514 37 360 0.0 0.0 0.00 0.02 0.00 94 1013.8
20260507112012 37 360 0.0 0.0 0.00 0.02 0.00 94 1013.7
20260507111511 37 360 0.0 0.0 0.00 0.02 0.00 93 1013.6
20260507111011 36 360 0.0 0.0 0.00 0.02 0.00 93 1013.6
20260507110511 36 360 0.0 0.0 0.00 0.02 0.00 93 1013.5
20260507110013 36 360 0.0 0.0 0.00 0.03 0.00 93 1013.4
20260507105511 36 360 0.0 0.0 0.00 0.03 0.00 93 1013.5
20260507105013 36 360 0.0 0.0 0.00 0.03 0.00 93 1013.4
20260507104511 35 360 0.0 0.0 0.00 0.03 0.00 93 1013.4
20260507104010 35 360 0.0 0.0 0.00 0.03 0.00 93 1013.4
20260507103510 35 360 0.0 0.0 0.00 0.03 0.00 93 1013.4
20260507103010 35 360 0.0 0.0 0.00 0.03 0.00 93 1013.3
20260507102509 35 360 0.0 0.0 0.00 0.03 0.00 93 1013.2
20260507102009 35 360 0.0 0.0 0.00 0.03 0.00 92 1013.2
20260507101510 35 360 0.0 0.0 0.00 0.03 0.00 92 1013.1
20260507101009 35 360 0.0 0.0 0.00 0.03 0.00 92 1013.1
20260507100508 35 360 0.0 0.0 0.00 0.03 0.00 92 1013.1
20260507100008 36 360 0.0 0.0 0.00 0.04 0.00 92 1013.1
20260507095507 36 360 0.0 0.0 0.00 0.04 0.00 92 1013.1
20260507095009 36 360 0.0 0.0 0.00 0.04 0.00 92 1013.1
20260507094506 36 360 0.0 0.0 0.00 0.04 0.00 92 1013.1
20260507094011 36 360 0.0 0.0 0.00 0.04 0.00 93 1013.2
20260507093506 36 360 0.0 0.0 0.00 0.04 0.00 92 1013.2
20260507093006 36 360 0.0 0.0 0.00 0.04 0.00 92 1013.2
20260507092506 36 360 0.0 0.0 0.00 0.04 0.00 92 1013.2
20260507092005 36 360 0.0 0.0 0.00 0.04 0.00 92 1013.2
20260507091508 36 360 0.0 0.0 0.00 0.04 0.00 92 1013.1
20260507091005 36 360 0.0 0.0 0.00 0.04 0.00 92 1013.2
20260507090505 36 360 0.0 0.0 0.00 0.04 0.00 92 1013.2
20260507090004 36 360 0.0 0.0 0.00 0.06 0.00 92 1013.3
20260507085503 36 360 0.0 0.0 0.00 0.06 0.00 92 1013.2
20260507085003 36 360 0.0 0.0 0.00 0.06 0.00 92 1013.1
20260507084503 36 360 0.0 0.0 0.00 0.06 0.00 92 1013.2
20260507084001 36 360 0.0 0.0 0.00 0.06 0.00 92 1013.3
20260507083501 36 360 0.0 0.0 0.00 0.06 0.00 92 1013.3
20260507083000 37 360 0.0 0.0 0.00 0.06 0.00 91 1013.3
20260507082601 37 360 0.0 0.0 0.00 0.06 0.00 91 1013.4
20260507082100 37 360 0.0 0.0 0.00 0.06 0.00 91 1013.4
20260507081602 37 360 0.0 0.0 0.00 0.06 0.00 91 1013.5
20260507081101 37 360 0.0 0.0 0.00 0.06 0.00 91 1013.4
20260507080559 37 360 0.0 0.0 0.00 0.06 0.00 91 1013.4
20260507080116 37 360 0.0 0.0 0.00 0.06 0.00 91 1013.4
20260507075559 37 360 0.0 0.0 0.00 0.06 0.00 90 1013.5
20260507075057 37 360 0.0 0.0 0.00 0.06 0.00 90 1013.5
20260507074558 38 360 0.0 0.0 0.00 0.06 0.00 90 1013.5
20260507074054 38 360 0.0 0.0 0.00 0.06 0.00 90 1013.4
20260507073558 38 360 0.0 0.0 0.00 0.06 0.00 90 1013.5
20260507073053 38 360 0.0 0.0 0.00 0.06 0.00 89 1013.4
20260507072555 38 360 0.0 0.0 0.00 0.06 0.00 89 1013.5
20260507072052 38 360 0.0 0.0 0.00 0.06 0.00 89 1013.4
20260507071551 39 360 0.0 0.0 0.00 0.06 0.00 89 1013.4
20260507071050 39 360 0.0 0.0 0.00 0.06 0.00 88 1013.5
20260507070550 39 360 0.0 0.0 0.00 0.06 0.00 88 1013.6
20260507065552 39 360 0.0 0.0 0.00 0.08 0.00 88 1013.5
20260507065048 39 360 0.0 0.0 0.00 0.08 0.00 88 1013.6
20260507064619 39 360 0.0 0.0 0.00 0.08 0.00 88 1013.7
20260507064052 40 360 0.0 0.0 0.00 0.08 0.00 87 1013.6
20260507063547 40 360 0.0 0.0 0.00 0.08 0.00 88 1013.6
20260507063051 40 360 0.0 0.0 0.00 0.08 0.00 87 1013.6
20260507062546 39 360 0.0 0.0 0.00 0.08 0.00 87 1013.6
20260507062046 39 360 0.0 0.0 0.00 0.08 0.00 87 1013.8
20260507061545 39 360 0.0 0.0 0.00 0.08 0.00 88 1013.8
20260507061044 39 360 0.0 0.0 0.00 0.08 0.00 88 1013.8
20260507060544 39 360 0.0 0.0 0.00 0.08 0.00 87 1013.9
20260507060107 39 360 0.0 0.0 0.00 0.09 0.00 87 1013.9
20260507055547 39 360 0.0 0.0 0.00 0.09 0.00 87 1013.9
20260507055043 40 360 0.0 0.0 0.00 0.09 0.00 86 1013.9
20260507054548 40 360 0.0 0.0 0.00 0.09 0.00 86 1014.0
20260507054042 40 360 0.0 0.0 0.00 0.09 0.00 86 1014.0
20260507053542 40 360 0.0 0.0 0.00 0.09 0.00 86 1014.1
20260507053041 40 360 0.0 0.0 0.00 0.09 0.00 86 1014.0
20260507052541 40 360 0.0 0.0 0.00 0.09 0.00 86 1014.1
20260507052041 40 360 0.0 0.0 0.00 0.09 0.00 86 1014.0
20260507051558 40 360 0.0 0.0 0.00 0.09 0.00 86 1014.0
20260507051039 40 360 0.0 0.0 0.00 0.09 0.00 87 1014.1
20260507050538 40 360 0.0 0.0 0.00 0.09 0.00 86 1014.1
20260507050045 40 360 0.0 0.0 0.00 0.10 0.00 85 1014.1
20260507045538 40 360 0.0 0.0 0.00 0.10 0.00 86 1014.2
20260507045038 40 360 0.0 0.0 0.00 0.10 0.00 86 1014.2
20260507044538 40 360 0.0 0.0 0.00 0.10 0.00 85 1014.3
20260507044040 40 360 0.0 0.0 0.00 0.10 0.00 85 1014.3
20260507043535 40 360 0.0 0.0 0.00 0.10 0.00 85 1014.4
20260507043035 40 360 0.0 0.0 0.00 0.10 0.00 85 1014.5
20260507042534 40 360 0.0 0.0 0.00 0.10 0.00 85 1014.5
20260507042033 40 360 0.0 0.0 0.00 0.10 0.00 85 1014.4
20260507041532 40 360 0.0 0.0 0.00 0.10 0.00 85 1014.4
20260507041032 40 360 0.0 0.0 0.00 0.10 0.00 84 1014.5
20260507040533 41 360 0.0 0.0 0.00 0.10 0.00 84 1014.5
20260507040030 41 360 0.0 0.0 0.00 0.12 0.10 84 1014.6
20260507035530 41 360 0.0 0.0 0.00 0.12 0.10 84 1014.5
20260507035029 41 360 0.0 0.0 0.00 0.12 0.10 84 1014.6
20260507034530 41 355 0.0 0.0 0.00 0.12 0.10 83 1014.6
20260507034027 41 355 0.0 0.0 0.00 0.12 0.10 83 1014.6
20260507033528 42 355 0.0 0.0 0.00 0.12 0.10 82 1014.5
20260507033026 42 355 0.0 0.0 0.00 0.12 0.10 82 1014.3
20260507032526 42 355 0.0 0.0 0.00 0.12 0.10 82 1014.5
20260507032027 42 355 0.0 0.0 0.00 0.12 0.10 82 1014.5
20260507031524 42 355 0.0 0.0 0.00 0.12 0.10 82 1014.6
20260507031024 42 355 0.0 0.0 0.00 0.12 0.10 80 1014.6
20260507030524 42 355 0.0 0.0 0.00 0.12 0.10 80 1014.5
20260507030028 42 355 0.0 0.0 0.00 0.14 0.10 79 1014.4
20260507025522 43 355 0.0 0.0 0.00 0.14 0.10 79 1014.5
20260507025022 43 355 0.0 0.0 0.00 0.14 0.10 78 1014.4
20260507024526 43 355 0.0 0.0 0.00 0.14 0.10 78 1014.5
20260507024024 43 355 0.0 0.0 0.00 0.14 0.10 77 1014.4
20260507023520 43 360 0.0 0.0 0.00 0.14 0.10 77 1014.4
20260507023020 43 360 0.0 0.0 0.00 0.14 0.10 77 1014.4
20260507022520 43 360 0.0 0.0 0.00 0.14 0.10 77 1014.3
20260507022020 43 360 0.0 0.0 0.00 0.14 0.10 76 1014.3
20260507021520 43 360 0.0 0.0 0.00 0.14 0.10 76 1014.2
20260507021018 43 360 0.0 0.0 0.00 0.14 0.10 76 1014.1
20260507020518 43 355 0.0 0.0 0.00 0.14 0.10 76 1014.2
20260507020018 43 355 0.0 0.0 0.00 0.16 0.10 76 1014.2
20260507015523 43 355 0.0 0.0 0.00 0.16 0.10 75 1014.2
20260507015017 43 355 0.0 0.0 0.00 0.16 0.10 74 1014.3
20260507014518 43 355 0.0 0.0 0.00 0.16 0.10 75 1014.3
20260507014017 43 355 0.0 0.0 0.00 0.16 0.10 74 1014.3
20260507013516 43 355 0.0 0.0 0.00 0.16 0.10 74 1014.3
20260507013016 44 355 0.0 0.0 0.00 0.16 0.10 74 1014.2
20260507012515 44 355 0.0 0.0 0.00 0.16 0.10 74 1014.2
20260507012016 44 355 0.0 0.0 0.00 0.16 0.10 74 1014.2
20260507011515 44 355 0.0 0.0 0.00 0.16 0.10 74 1014.2
20260507011014 44 355 0.0 0.0 0.00 0.16 0.10 74 1014.3
20260507010514 44 355 0.0 0.0 0.00 0.16 0.10 74 1014.2
20260507010017 44 355 0.0 4.0 0.00 0.18 0.10 72 1014.1
20260507005513 44 355 1.0 4.0 0.00 0.18 0.10 73 1014.1
20260507005013 44 355 0.0 3.0 0.00 0.18 0.10 73 1014.0
20260507004518 44 355 1.0 3.0 0.00 0.18 0.10 73 1014.0
20260507004012 44 355 0.0 1.0 0.00 0.18 0.10 73 1014.1
20260507003512 44 355 0.0 1.0 0.00 0.18 0.10 73 1014.1
20260507003011 44 355 0.0 2.0 0.00 0.18 0.10 73 1014.0
20260507002511 44 355 1.0 2.0 0.00 0.18 0.10 72 1014.2
20260507002014 44 355 0.0 1.0 0.00 0.18 0.10 71 1014.0
20260507001515 45 355 0.0 3.0 0.00 0.18 0.10 71 1013.9
20260507001008 45 355 1.0 3.0 0.00 0.18 0.10 71 1013.9
20260507000508 45 355 1.0 5.0 0.00 0.18 0.10 72 1013.8
20260507000008 45 5 2.0 5.0 0.00 0.21 0.10 73 1013.7
20260506235508 45 319 0.0 5.0 0.00 0.21 0.10 74 1013.8
20260506235009 45 319 1.0 8.0 0.00 0.21 0.10 73 1013.8
20260506234509 45 312 3.0 8.0 0.00 0.21 0.10 72 1013.8
20260506234007 45 311 1.0 8.0 0.00 0.21 0.10 72 1013.8
20260506233510 45 306 3.0 9.0 0.00 0.21 0.10 71 1013.7
20260506233011 46 298 4.0 10.0 0.00 0.21 0.10 72 1013.7
20260506232504 46 333 5.0 10.0 0.00 0.21 0.10 71 1013.6
20260506232004 46 319 3.0 8.0 0.00 0.21 0.10 72 1013.5
20260506231504 46 318 2.0 5.0 0.00 0.21 0.10 71 1013.5
20260506231008 46 331 2.0 5.0 0.00 0.21 0.10 70 1013.5
20260506230504 46 303 1.0 5.0 0.00 0.21 0.10 69 1013.5
20260506230010 46 287 2.0 8.0 0.00 0.25 0.10 68 1013.6
20260506225503 46 304 1.0 9.0 0.00 0.25 0.10 68 1013.6
20260506225003 46 323 4.0 9.0 0.00 0.25 0.10 67 1013.5
20260506224502 46 284 4.0 9.0 0.00 0.25 0.10 66 1013.5
20260506224000 47 304 3.0 10.0 0.00 0.25 0.10 67 1013.5
20260506223600 47 295 4.0 10.0 0.00 0.25 0.10 66 1013.4